Location: SWAOG Dark Site
(41.6289°N, 88.5397°W)
Time: 10:26:06
(UTC-05:00)

X-37B - Visible Passes

Search period start: 24 June 2021 00:00
Search period end: 04 July 2021 00:00
Orbit: 386 x 389 km, 45.0° (Epoch: 10 June)

Date Brightness Start Highest point End Pass type
(mag) Time Alt. Az. Time Alt. Az. Time Alt. Az.
24 Jun 0.7 22:17:36 10° WSW 22:20:47 74° NNW 22:23:57 10° ENE visible
24 Jun 2.3 23:54:37 10° WNW 23:56:42 32° NW 23:56:42 32° NW visible
25 Jun 0.5 21:19:15 10° WSW 21:22:25 71° SSE 21:25:36 10° ENE visible
25 Jun 1.7 22:56:07 10° W 22:59:11 44° N 23:01:00 21° ENE visible
26 Jun 3.5 00:32:59 10° WNW 00:33:17 12° WNW 00:33:17 12° WNW visible
26 Jun 1.4 21:57:36 10° W 22:00:44 53° NNW 22:03:51 10° ENE visible
26 Jun 1.7 23:34:35 10° WNW 23:37:22 44° NNW 23:37:22 44° NNW visible
27 Jun 1.8 22:36:08 10° WNW 22:39:12 42° N 22:41:20 17° ENE visible
28 Jun 3.2 00:12:52 10° WNW 00:13:36 16° WNW 00:13:36 16° WNW visible
28 Jun 1.7 21:37:39 10° W 21:40:43 44° N 21:43:48 10° ENE visible
28 Jun 1.2 23:14:30 10° WNW 23:17:32 56° N 23:17:32 56° N visible
29 Jun 1.6 22:16:07 10° WNW 22:19:12 46° N 22:21:26 16° ENE visible
29 Jun 3.1 23:52:47 10° WNW 23:53:41 17° WNW 23:53:41 17° WNW visible
30 Jun 1.8 21:17:41 10° WNW 21:20:43 42° N 21:23:47 10° ENE visible
30 Jun 0.5 22:54:24 10° WNW 22:57:36 81° NNE 22:57:36 81° NNE visible
01 Jul 1.1 21:56:02 10° WNW 21:59:11 57° NNE 22:01:30 17° E visible
01 Jul 3.0 23:32:47 10° W 23:33:46 17° W 23:33:46 17° W visible
02 Jul 0.5 22:34:19 10° WNW 22:37:28 63° SSW 22:37:41 61° S visible
03 Jul 0.6 21:35:56 10° WNW 21:39:07 81° NNE 21:41:37 15° ESE visible
03 Jul 3.1 23:13:03 10° W 23:13:53 15° WSW 23:13:53 15° WSW visible
